Worthington, MN

12:09 PM CST on February 07, 2016 (GMT -0600)
Worthington Municipal

Weather History for KOTG - July, 2013

Change the Weather History Date:

Wednesday, July 17, 2013

  Actual Average Record
Temperature  
Mean Temperature 80 °F -  
Max Temperature 89 °F - - ()
Min Temperature 71 °F - - ()
Cooling Degree Days 15    
Growing Degree Days 30 (Base 50)    
Moisture  
Dew Point 65 °F    
Average Humidity 59    
Maximum Humidity 78    
Minimum Humidity 43    
Precipitation  
Precipitation 0.00 in - - ()
Sea Level Pressure  
Sea Level Pressure 30.26 in    
Wind  
Wind Speed 10 mph (SSW)    
Max Wind Speed 16 mph    
Max Gust Speed 22 mph    
Visibility 10 miles    
Events      
T = Trace of Precipitation, MM = Missing Value Source: NWS Daily Summary

Daily Weather History Graph

Daily Weather History Graph

Search for Another Location

Airport or City:

Trip Planner

Search our weather history database for the weather conditions in past years. The results will help you decide how hot, cold, wet, or windy it might be!

Date:

Astronomy

Jul. 17, 2013 Rise Set
Actual Time 5:56 AM CDT 8:59 PM CDT
Civil Twilight 5:22 AM CDT 9:34 PM CDT
Nautical Twilight 4:38 AM CDT 10:18 PM CDT
Astronomical Twilight 3:45 AM CDT 11:10 PM CDT
Moon 3:47 PM CDT (7/17) 1:08 AM CDT (7/17)
Length of Visible Light 16h 11m
Length of Day
15h 03m
Waxing Gibbous, 67% of the Moon is Illuminated
Jul 17
Waxing Gibbous
Jul 22
Full
Jul 29
Last Quarter
Aug 6
New
Aug 14
First Quarter

Hourly Weather History & Observations

Time (CDT) Temp. Heat Index Dew Point Humidity Pressure Visibility Wind Dir Wind Speed Gust Speed Precip Events Conditions
12:15 AM 73.4 °F - 62.6 °F 69% 30.28 in 10.0 mi SSW 6.9 mph - N/A   Clear
12:35 AM 73.4 °F - 62.6 °F 69% 30.28 in 10.0 mi South 6.9 mph - N/A   Clear
12:55 AM 73.4 °F - 62.6 °F 69% 30.28 in 10.0 mi SSW 8.1 mph - N/A   Clear
1:15 AM 73.4 °F - 62.6 °F 69% 30.29 in 10.0 mi South 9.2 mph - N/A   Clear
1:35 AM 73.4 °F - 62.6 °F 69% 30.29 in 10.0 mi SSW 8.1 mph - N/A   Clear
1:55 AM 73.4 °F - 62.6 °F 69% 30.29 in 10.0 mi SSW 6.9 mph - N/A   Clear
2:15 AM 73.4 °F - 62.6 °F 69% 30.29 in 10.0 mi SSW 8.1 mph - N/A   Clear
2:35 AM 73.4 °F - 62.6 °F 69% 30.29 in 10.0 mi South 9.2 mph - N/A   Clear
2:55 AM 73.4 °F - 62.6 °F 69% 30.29 in 10.0 mi SSW 9.2 mph - N/A   Clear
3:15 AM 73.4 °F - 64.4 °F 73% 30.29 in 10.0 mi SSW 9.2 mph - N/A   Clear
3:35 AM 73.4 °F - 64.4 °F 73% 30.29 in 10.0 mi SSW 8.1 mph - N/A   Clear
3:55 AM 73.4 °F - 62.6 °F 69% 30.29 in 10.0 mi SSW 6.9 mph - N/A   Clear
4:15 AM 73.4 °F - 64.4 °F 73% 30.29 in 10.0 mi SSW 8.1 mph - N/A   Clear
4:35 AM 71.6 °F - 64.4 °F 78% 30.29 in 10.0 mi SSW 8.1 mph - N/A   Clear
4:55 AM 71.6 °F - 62.6 °F 73% 30.29 in 10.0 mi South 8.1 mph - N/A   Clear
5:15 AM 71.6 °F - 64.4 °F 78% 30.29 in 10.0 mi South 8.1 mph - N/A   Clear
5:35 AM 71.6 °F - 62.6 °F 73% 30.30 in 10.0 mi South 8.1 mph - N/A   Clear
5:55 AM 71.6 °F - 62.6 °F 73% 30.30 in 10.0 mi SSW 8.1 mph - N/A   Clear
6:15 AM 73.4 °F - 64.4 °F 73% 30.30 in 10.0 mi SSW 9.2 mph - N/A   Clear
6:35 AM 73.4 °F - 64.4 °F 73% 30.30 in 10.0 mi SSW 9.2 mph - N/A   Clear
6:55 AM 73.4 °F - 64.4 °F 73% 30.30 in 10.0 mi SSW 9.2 mph - N/A   Clear
7:15 AM 75.2 °F - 64.4 °F 69% 30.30 in 10.0 mi SSW 9.2 mph - N/A   Clear
7:35 AM 75.2 °F - 64.4 °F 69% 30.31 in 10.0 mi SW 11.5 mph - N/A   Clear
7:55 AM 77.0 °F - 64.4 °F 65% 30.31 in 10.0 mi SW 10.4 mph - N/A   Clear
8:15 AM 78.8 °F - 64.4 °F 61% 30.31 in 10.0 mi SSW 10.4 mph - N/A   Clear
8:35 AM 78.8 °F - 66.2 °F 65% 30.32 in 10.0 mi SSW 12.7 mph - N/A   Clear
8:55 AM 80.6 °F 82.3 °F 64.4 °F 58% 30.32 in 10.0 mi SW 10.4 mph - N/A   Clear
9:15 AM 80.6 °F 82.7 °F 66.2 °F 61% 30.31 in 10.0 mi SW 12.7 mph - N/A   Clear
9:35 AM 80.6 °F 82.7 °F 66.2 °F 61% 30.31 in 10.0 mi WSW 11.5 mph - N/A   Clear
9:55 AM 82.4 °F 83.9 °F 64.4 °F 54% 30.31 in 10.0 mi SW 12.7 mph - N/A   Clear
10:15 AM 82.4 °F 83.9 °F 64.4 °F 54% 30.31 in 10.0 mi SW 15.0 mph - N/A   Clear
10:35 AM 84.2 °F 85.6 °F 64.4 °F 51% 30.31 in 10.0 mi SW 12.7 mph - N/A   Clear
10:55 AM 84.2 °F 86.6 °F 66.2 °F 55% 30.31 in 10.0 mi SW 16.1 mph 20.7 mph N/A   Clear
11:15 AM 84.2 °F 86.6 °F 66.2 °F 55% 30.31 in 10.0 mi SSW 15.0 mph - N/A   Clear
11:35 AM 86.0 °F 88.2 °F 66.2 °F 51% 30.31 in 10.0 mi SSW 13.8 mph - N/A   Clear
11:55 AM 87.8 °F 90.4 °F 66.2 °F 49% 30.31 in 10.0 mi SW 13.8 mph - N/A   Clear
12:15 PM 87.8 °F 89.4 °F 64.4 °F 46% 30.31 in 10.0 mi SSW 12.7 mph 16.1 mph N/A   Clear
12:35 PM 87.8 °F 89.4 °F 64.4 °F 46% 30.30 in 10.0 mi SW 12.7 mph 18.4 mph N/A   Clear
12:55 PM 87.8 °F 89.4 °F 64.4 °F 46% 30.30 in 10.0 mi SW 13.8 mph 18.4 mph N/A   Clear
1:15 PM 87.8 °F 89.4 °F 64.4 °F 46% 30.29 in 10.0 mi SSW 12.7 mph 18.4 mph N/A   Clear
1:35 PM 89.6 °F 91.1 °F 64.4 °F 43% 30.29 in 10.0 mi SSW 13.8 mph 19.6 mph N/A   Clear
1:55 PM 89.6 °F 91.1 °F 64.4 °F 43% 30.28 in 10.0 mi SSW 13.8 mph 19.6 mph N/A   Clear
2:15 PM 89.6 °F 91.1 °F 64.4 °F 43% 30.28 in 10.0 mi South 11.5 mph - N/A   Scattered Clouds
2:35 PM 89.6 °F 92.2 °F 66.2 °F 46% 30.27 in 10.0 mi South 9.2 mph 17.3 mph N/A   Mostly Cloudy
2:55 PM 89.6 °F 92.2 °F 66.2 °F 46% 30.26 in 10.0 mi SW 9.2 mph - N/A   Mostly Cloudy
3:15 PM 89.6 °F 92.2 °F 66.2 °F 46% 30.26 in 10.0 mi SW 11.5 mph 17.3 mph N/A   Scattered Clouds
3:35 PM 89.6 °F 92.2 °F 66.2 °F 46% 30.25 in 10.0 mi SSW 12.7 mph 17.3 mph N/A   Scattered Clouds
3:55 PM 89.6 °F 91.1 °F 64.4 °F 43% 30.25 in 10.0 mi SSW 11.5 mph - N/A   Scattered Clouds
4:15 PM 89.6 °F 91.1 °F 64.4 °F 43% 30.24 in 10.0 mi South 13.8 mph - N/A   Partly Cloudy
4:35 PM 89.6 °F 91.1 °F 64.4 °F 43% 30.24 in 10.0 mi South 12.7 mph 17.3 mph N/A   Partly Cloudy
4:55 PM 89.6 °F 91.1 °F 64.4 °F 43% 30.23 in 10.0 mi SSW 16.1 mph 21.9 mph N/A   Partly Cloudy
5:15 PM 87.8 °F 89.4 °F 64.4 °F 46% 30.23 in 10.0 mi South 11.5 mph 19.6 mph N/A   Mostly Cloudy
5:35 PM 87.8 °F 89.4 °F 64.4 °F 46% 30.23 in 10.0 mi SSW 13.8 mph 19.6 mph N/A   Scattered Clouds
5:55 PM 87.8 °F 90.4 °F 66.2 °F 49% 30.22 in 10.0 mi SSW 13.8 mph 19.6 mph N/A   Clear
6:15 PM 87.8 °F 90.4 °F 66.2 °F 49% 30.21 in 10.0 mi SSW 15.0 mph - N/A   Partly Cloudy
6:35 PM 87.8 °F 90.4 °F 66.2 °F 49% 30.21 in 10.0 mi SSW 9.2 mph 18.4 mph N/A   Partly Cloudy
6:55 PM 87.8 °F 90.4 °F 66.2 °F 49% 30.21 in 10.0 mi SSW 12.7 mph - N/A   Partly Cloudy
7:15 PM 87.8 °F 90.4 °F 66.2 °F 49% 30.20 in 10.0 mi SSW 10.4 mph - N/A   Clear
7:35 PM 87.8 °F 90.4 °F 66.2 °F 49% 30.20 in 10.0 mi SSW 9.2 mph - N/A   Clear
7:55 PM 86.0 °F 88.2 °F 66.2 °F 51% 30.20 in 10.0 mi SSW 12.7 mph - N/A   Clear
8:15 PM 84.2 °F 85.6 °F 64.4 °F 51% 30.20 in 10.0 mi SSW 10.4 mph - N/A   Clear
8:35 PM 84.2 °F 85.6 °F 64.4 °F 51% 30.19 in 10.0 mi SSW 12.7 mph - N/A   Clear
8:55 PM 82.4 °F 83.9 °F 64.4 °F 54% 30.19 in 10.0 mi SSW 9.2 mph - N/A   Clear
9:15 PM 82.4 °F 83.9 °F 64.4 °F 54% 30.19 in 10.0 mi South 9.2 mph - N/A   Clear
9:35 PM 80.6 °F 82.7 °F 66.2 °F 61% 30.19 in 10.0 mi South 8.1 mph - N/A   Clear
9:55 PM 78.8 °F - 66.2 °F 65% 30.19 in 10.0 mi South 9.2 mph - N/A   Clear
10:15 PM 78.8 °F - 66.2 °F 65% 30.19 in 10.0 mi South 8.1 mph - N/A   Clear
10:35 PM 78.8 °F - 66.2 °F 65% 30.18 in 10.0 mi South 9.2 mph - N/A   Clear
10:55 PM 78.8 °F - 64.4 °F 61% 30.18 in 10.0 mi South 9.2 mph - N/A   Clear
11:15 PM 77.0 °F - 64.4 °F 65% 30.18 in 10.0 mi South 9.2 mph - N/A   Clear
11:35 PM 77.0 °F - 64.4 °F 65% 30.18 in 10.0 mi South 9.2 mph - N/A   Clear
11:55 PM 75.2 °F - 64.4 °F 69% 30.18 in 10.0 mi South 9.2 mph - N/A   Clear